Location: *
(50.6089°N, 2.2719°E)
Time: 03:05:56
(UTC+00:00)

Cosmos 1833 Rocket - Pass Details

Date: 18 October 2019
Orbit: 833 x 839 km, 71.0° (Epoch: 12 November)

Event Time Altitude Azimuth Distance (km) Brightness Sun altitude
Rises 18:14:38 0° 330° (NNW) 3,394 6.3 -13.6°
Reaches altitude 10° 18:17:06 10° 332° (NNW) 2,456 5.5 -14.0°
Maximum altitude 18:22:44 77° 59° (ENE) 863 2.6 -14.9°
Drops below altitude 10° 18:28:21 10° 146° (SE) 2,444 4.7 -15.8°
Enters shadow 18:28:49 - 146° (SE) 2,621 4.9 -15.8°
